Location: T�bingen+AIT
(48.5342°N, 9.0700°E)
Time: 19:31:27
(UTC+01:00)

Cosmos 1943 Rocket - Pass Details

Date: 14 September 2017
Orbit: 811 x 845 km, 71.0° (Epoch: 22 November)

Event Time Altitude Azimuth Distance (km) Brightness Sun altitude
Rises 22:08:28 0° 325° (NW) 3,358 6.5 -23.9°
Reaches altitude 10° 22:11:04 10° 317° (NW) 2,426 5.6 -24.2°
Maximum altitude 22:16:01 34° 254° (WSW) 1,327 3.5 -24.9°
Enters shadow 22:18:52 21° 205° (SSW) 1,772 3.7 -25.3°
